Location: Unspecified
(0.0000°N, 0.0000°E)
Time: 07:37:22
(UTC+01:00)

SJ-6B - Visible Passes

Search period start: 21 November 2017 00:00
Search period end: 01 December 2017 00:00
Orbit: 512 x 582 km, 97.7° (Epoch: 20 November)

Date Brightness Start Highest point End Pass type
(mag) Time Alt. Az. Time Alt. Az. Time Alt. Az.
24 Nov 6.0 21:19:43 10° SW 21:19:54 11° SW 21:19:54 11° SW visible
25 Nov 5.8 21:14:16 10° SSW 21:14:50 13° SW 21:14:50 13° SW visible
26 Nov 5.5 21:08:54 10° SSW 21:09:47 15° SSW 21:09:47 15° SSW visible
27 Nov 5.3 21:03:34 10° SSW 21:04:42 17° SSW 21:04:42 17° SSW visible
28 Nov 5.1 20:58:16 10° S 20:59:38 20° SSW 20:59:38 20° SSW visible
29 Nov 4.9 20:53:01 10° S 20:54:34 22° SSW 20:54:34 22° SSW visible
30 Nov 4.7 20:47:48 10° S 20:49:31 24° S 20:49:31 24° S visible
